Regional Weather Roundup
Issued by NWS

Home | Current Version | Previous Version | Text Only | Print | Product List | Glossary Off
Versions: 1 2 3 4 5 6 7 8 9 10 11 12 13 14 15 16 17 18 19 20 21 22 23 24 25 26 27 28 29 30 31 32 33 34 35 36 37 38 39 40 41 42 43 44 45 46 47 48 49 50

000
ASUS43 KDTX 300510
RWRMI
MICHIGAN HOURLY REGIONAL WEATHER ROUNDUP
NATIONAL WEATHER SERVICE DETROIT/PONTIAC MI
100 AM EDT SAT JUL 30 2016

NOTE: "FAIR" INDICATES FEW OR NO CLOUDS BELOW 12,000 FEET WITH NO
SIGNIFICANT WEATHER AND/OR OBSTRUCTION TO VISIBILITY.

MIZ047>049-052>055-059>063-066>070-074>076-081>083-300600-
SOUTHEAST LOWER MICHIGAN

CITY           SKY/WX    TMP DP  RH WIND       PRES   REMARKS
ADRIAN         LGT RAIN  69  65  86 NE6       29.99R
ALMA           CLOUDY    65  61  86 NW5       30.04R
ANN ARBOR      CLOUDY    69  58  67 N7        29.99S
BAD AXE        CLOUDY    67  58  70 NE5       30.04R
CARO           CLOUDY    65  58  80 CALM      30.02R
DETROIT CITY   CLOUDY    70  60  70 N7        29.98S
DETROIT        CLOUDY    71  56  58 N7        29.99R
FLINT          MOCLDY    70  57  63 NE9       30.01S
GROSSE ILE     CLOUDY    71  59  65 N7        29.96S
HILLSDALE      RAIN      68  66  93 NE7       29.98F
HOWELL         CLOUDY    66  56  71 CALM      30.01S

CITY           SKY/WX    TMP DP  RH WIND       PRES   REMARKS
JACKSON        LGT RAIN  65  61  87 NE3       30.01R
LAMBERTVILLE   CLOUDY    72  64  75 NE5       29.97S
LANSING        CLOUDY    67  56  67 NE6       30.02R
LAPEER         CLOUDY    65  58  77 CALM      30.01S
MASON          CLOUDY    66  56  70 E7        30.01R
MONROE         LGT RAIN  70  60  72 N7        29.97R
MT. CLEMENS    CLOUDY    67  61  80 N6        29.97R
PONTIAC        CLOUDY    67  58  72 NE5       29.99F
PORT HOPE        N/A     71  62  73 NE18      30.03S
PORT HURON     CLOUDY    66  63  88 NW5       29.99S
TRI CITIES     CLOUDY    67  60  78 NE6       30.03S
MIDLAND        CLOUDY    65  55  72 N3        30.03R
TROY           CLOUDY    70  57  64 NE3       30.01S
SAGINAW HB     CLOUDY    66  57  72 N7        30.02S
$$
MIZ043>046-050>051-056>058-064>065-071>073-077>080-300600-
SOUTHWEST LOWER MICHIGAN

CITY           SKY/WX    TMP DP  RH WIND       PRES   REMARKS
BATTLE CREEK   CLOUDY    67  59  75 E9        29.99S
BENTON HARBOR  CLOUDY    68  63  84 E7        29.95S
BIG RAPIDS     MOCLDY    64  60  86 NE5       30.04S
COLDWATER      DRIZZLE   68  68  99 NE5       29.97F
FREMONT        FAIR      66  58  75 E12       30.02R
HOLLAND        CLOUDY    65  60  84 NE8       29.99S
GRAND RAPIDS   LGT RAIN  65  58  78 NE14      30.01S
IONIA          LGT RAIN  63  58  85 NE8       30.01S
KALAMAZOO      CLOUDY    70  58  65 VRB3      29.97S
LUDINGTON      PTCLDY    65  60  82 E5        30.02S
MARSHALL       LGT RAIN  66  62  86 CALM      29.99S
MOUNT PLEASANT CLOUDY    64  55  73 N3        30.03S
MUSKEGON       CLOUDY    68  56  65 E10       30.01R
SOUTH HAVEN    CLOUDY    67  64  89 E7        29.97R
$$
MIZ016>042-300600-
NORTHERN LOWER MICHIGAN

CITY           SKY/WX    TMP DP  RH WIND       PRES   REMARKS
ALPENA         PTCLDY    57  53  86 CALM      30.08R
BEAVER ISLAND  CLEAR     57  56  97 CALM      30.07S
BELLAIRE       CLOUDY    55  51  89 CALM      30.06F
CADILLAC       MOCLDY    60  54  78 NE5       30.06S
CHARLEVOIX     CLEAR     65  51  60 SE3       30.09S
FRANKFORT      PTCLDY    68  54  59 E6        30.03S
GAYLORD        CLOUDY    61  50  67 CALM      30.09S
GRAYLING       CLOUDY    53  49  86 CALM      30.08F
HARBOR SPRINGS CLEAR     60  56  85 NE5       30.08R
HOUGHTON LAKE  CLOUDY    58  51  78 NE3       30.07F
MANISTEE       PTCLDY    64  59  83 E5        30.03
OSCODA         MOCLDY    57  54  89 CALM      30.05S
PELLSTON       CLEAR     51  49  92 CALM      30.08S
ROGERS CITY    PTCLDY    55  51  86 SW5       30.09S
TRAVERSE CITY  CLOUDY    68  50  52 CALM      30.04S
$$
MIZ007>008-015-300600-
EASTERN UPPER MICHIGAN

CITY           SKY/WX    TMP DP  RH WIND       PRES   REMARKS
KINROSS        CLEAR     59  54  83 SW6       30.09S
MACKINAC ISLAN CLEAR     60  59  97 N5        30.08S
NEWBERRY       CLEAR     57  54  88 CALM      30.09S
S. S. MARIE    CLEAR     62  55  77 CALM      30.07R
MUNISING         N/A     55  54  96 S7        30.08S
$$
MIZ004>006-011>014-085-300600-
CENTRAL UPPER MICHIGAN

CITY           SKY/WX    TMP DP  RH WIND       PRES   REMARKS
MANISTIQUE     CLEAR     56  54  92 CALM      30.07S
ESCANABA       CLEAR     55  52  88 CALM      30.05S
MENOMINEE      PTCLDY   N/A N/A N/A NE6       30.05S
SAWYER-GWINN   CLEAR     54  50  87 CALM      30.10S
$$
MIZ001>003-009>011-084-300600-
WESTERN UPPER MICHIGAN

CITY           SKY/WX    TMP DP  RH WIND       PRES   REMARKS
IRON MOUNTAIN  CLEAR     56  52  86 CALM      30.08R
HOUGHTON       CLEAR     56  52  86 E5        30.08S
COPPER HARBOR    N/A     59  51  75 CALM      30.08R
IRONWOOD       MOCLDY    59  54  82 E7        30.06S
$$

ABBREVIATIONS USED IN REMARKS
   TC - TEMPERATURE IN CELSIUS
  WCI - WIND CHILL INDEX
   HX - HEAT INDEX
  VSB - VISIBILITY




USA.gov is the U.S. government's official web portal to all federal, state and local government web resources and services.